Theta_e
326 324 323 322 321 321 321 321 322 321 321 322 321 321 321 321 321 322 323 324 325 325 325 323 324 323 308 297 300 314 324 324 311 305 302 301 298 297 292 294 295 295 295 296 297 297 296
325 325 324 324 323 322 320 320 321 322 322 322 321 320 320 321 321 321 322 324 325 325 324 322 323 321 299 295 311 312 309 306 305 303 301 301 299 299 295 294 294 294 295 295 295 295 295
326 325 325 324 323 322 321 320 321 322 322 322 321 321 320 321 321 322 322 323 324 324 323 322 321 313 298 301 313 312 307 304 305 303 301 301 301 299 297 293 296 294 292 293 293 293 293
326 325 324 325 324 323 322 321 320 322 322 322 321 320 320 320 321 321 322 323 324 321 321 320 320 305 299 303 311 311 306 304 304 303 303 302 302 299 296 295 292 290 289 288 292 293 293
326 325 324 324 324 323 322 321 321 322 322 321 320 319 320 320 320 320 321 323 320 320 321 320 306 299 298 308 304 305 303 303 301 301 301 302 299 295 295 290 287 287 285 285 289 293 292
326 325 324 324 323 322 322 321 321 321 321 320 320 319 320 320 320 320 321 323 318 315 315 313 307 299 299 297 299 301 301 302 299 299 298 297 292 290 288 287 284 285 284 285 286 290 290
326 325 325 324 323 322 322 321 321 321 321 320 320 320 320 320 320 321 320 310 305 302 303 301 299 298 298 298 300 298 301 299 297 294 290 291 288 287 288 289 288 287 285 286 286 290 290
326 325 325 324 323 323 322 321 321 322 321 320 320 320 320 320 320 322 318 306 303 303 299 305 303 300 299 299 295 296 300 295 292 288 289 287 286 290 290 289 288 285 285 285 287 289 289
321 322 325 324 323 323 322 321 321 322 321 320 320 319 319 320 320 320 315 310 306 303 298 301 303 302 302 299 296 295 299 294 290 287 287 286 289 290 289 287 286 285 284 284 286 287 288
319 319 320 323 323 322 321 321 321 321 320 320 320 319 318 319 316 317 313 317 306 304 292 294 297 301 298 299 295 297 298 295 290 288 287 287 290 290 286 286 286 283 287 287 286 285 282
318 320 319 319 321 321 321 320 320 320 319 319 319 319 318 320 312 312 312 308 304 302 280 294 295 299 297 298 294 293 296 295 289 290 290 289 287 287 287 288 288 287 288 286 286 284 283
315 317 319 318 319 319 320 320 320 320 319 318 319 318 318 317 316 311 306 305 303 292 282 290 292 291 293 292 291 292 293 294 293 289 287 289 289 290 290 288 289 288 287 285 283 282 277
314 314 316 318 317 318 319 320 320 320 319 318 318 318 316 318 312 308 307 305 293 286 293 288 288 290 291 288 289 290 288 287 287 284 284 286 287 288 289 286 287 285 285 279 278 277 278
313 313 314 316 318 316 317 318 320 320 319 318 318 317 316 319 313 308 309 299 287 291 290 289 288 288 288 288 287 287 286 285 287 285 283 283 282 287 289 288 286 284 285 280 274 274 277
312 312 312 314 317 317 315 317 316 318 318 318 317 316 316 317 313 312 304 292 290 292 295 288 287 284 284 286 286 285 285 285 289 288 287 283 284 287 287 288 289 284 283 286 279 269 275
310 311 311 312 313 318 316 316 316 316 317 317 314 313 312 319 314 312 299 293 295 298 294 291 289 288 283 284 284 284 283 286 288 290 291 288 283 286 286 288 288 286 288 282 280 273 271
308 310 310 311 311 313 317 317 317 317 316 317 314 306 314 319 313 306 293 293 297 301 297 292 291 289 286 284 285 282 284 286 288 288 291 289 288 284 286 285 285 285 283 283 284 281 276
307 308 310 310 310 310 313 317 318 317 316 313 309 300 314 318 300 302 296 296 299 301 301 297 296 296 290 289 285 284 284 288 291 290 288 290 287 280 283 285 285 285 285 285 281 277 277
305 306 308 309 309 309 309 312 317 317 316 309 302 302 309 314 295 296 300 299 300 298 300 299 296 296 295 290 288 286 286 291 293 291 289 291 285 277 281 284 283 283 284 284 283 280 276
303 305 306 309 308 308 308 309 310 316 317 312 299 292 298 300 299 299 296 297 296 302 300 299 297 296 293 293 294 290 287 289 291 292 296 295 286 284 284 284 284 281 282 283 285 276 280
302 303 305 307 307 307 306 307 308 309 313 307 299 294 297 292 295 295 295 297 296 295 299 300 295 297 295 291 291 291 290 289 290 294 292 292 285 282 284 284 284 284 283 282 283 285 282
301 302 304 305 307 306 305 305 306 306 307 300 294 292 293 293 296 295 294 292 293 297 294 294 295 297 298 294 295 292 291 289 290 288 289 289 286 283 281 282 282 281 283 283 284 284 284
303 302 303 305 306 305 304 304 304 304 303 294 293 293 294 292 291 292 293 294 292 296 294 295 296 294 294 296 294 291 294 294 292 289 287 286 283 283 283 279 281 280 281 282 282 282 285
302 303 303 303 304 306 304 304 303 302 300 296 293 294 290 285 290 291 292 294 292 294 293 292 293 290 290 292 293 291 288 288 290 286 291 284 284 283 272 277 274 278 275 281 283 283 281
301 302 302 303 303 304 306 304 303 301 300 295 294 292 288 285 288 287 288 290 292 290 290 289 286 287 292 290 284 282 280 282 280 278 283 285 284 275 274 274 278 276 275 278 280 279 280
300 300 301 302 303 303 304 305 304 302 301 295 294 295 291 286 285 289 286 287 285 284 282 281 284 285 288 285 283 279 276 279 276 275 279 283 284 284 273 273 272 276 276 277 279 274 274
297 299 300 301 303 303 303 304 305 302 300 293 292 295 290 285 286 288 285 285 288 285 281 281 282 284 284 282 278 278 277 279 274 273 274 276 276 279 275 274 276 278 276 278 274 278 276
296 298 299 301 301 302 302 303 304 303 300 292 290 294 290 285 284 284 287 286 285 285 281 280 282 281 281 280 280 278 276 276 275 274 274 276 275 274 275 273 273 277 276 276 280 277 278
295 297 298 299 300 301 302 303 303 304 300 295 286 291 290 284 283 287 287 287 288 290 284 282 284 280 283 281 280 278 274 274 274 274 274 275 278 276 278 277 277 279 279 280 280 279 278
Wind_Speed
14 14 15 15 15 14 13 12 10 10 8 6 5 4 4 4 4 6 7 8 8 8 10 11 10 9 3 3 5 1 3 4 4 2 3 3 3 3 4 4 2 2 0 2 2 3 3
16 15 15 15 14 14 15 14 12 10 9 7 6 6 5 6 6 5 6 8 10 10 10 9 8 6 2 3 2 2 5 3 3 4 2 3 6 4 5 3 3 2 1 4 4 3 3
18 17 16 16 15 14 15 16 14 11 10 8 8 7 6 6 6 6 6 7 9 10 9 8 4 1 2 10 2 2 2 2 2 3 4 1 6 3 4 4 0 2 2 7 2 1 3
21 19 18 17 16 15 14 14 18 13 11 9 9 8 7 7 6 6 7 7 9 8 3 2 1 0 7 1 2 3 3 3 3 4 4 2 4 6 4 4 6 2 4 2 2 0 1
23 22 21 20 18 16 15 16 17 14 12 11 10 8 8 7 6 6 6 9 7 1 2 3 1 1 7 2 3 2 2 6 4 3 5 4 6 4 4 6 4 6 3 4 7 1 2
24 23 22 21 21 19 18 18 17 15 14 12 11 9 9 8 6 5 7 7 3 2 1 1 1 2 2 4 3 3 3 5 5 4 4 7 6 4 3 4 6 7 4 5 5 3 2
24 24 22 21 21 20 20 19 18 18 16 14 12 11 10 8 6 4 3 2 3 3 1 9 6 3 4 1 1 2 2 5 4 6 5 2 4 9 13 9 3 6 4 6 2 3 3
25 25 23 24 23 21 21 21 20 20 18 14 13 12 10 8 6 5 3 2 3 3 7 8 4 4 3 6 4 2 5 6 4 5 5 5 8 8 5 5 4 4 4 6 5 3 2
14 12 22 26 25 23 23 22 21 21 19 16 14 13 11 9 7 4 3 6 1 1 2 7 6 6 6 8 7 10 9 5 5 6 8 8 4 8 8 5 6 5 7 5 6 1 2
15 13 13 18 24 25 25 23 22 21 19 16 15 14 12 10 4 5 5 7 6 1 3 8 6 6 4 8 3 2 4 6 3 11 9 6 2 6 4 6 8 6 9 7 5 4 5
14 13 12 14 24 29 26 25 22 22 20 18 18 16 16 17 6 5 4 8 7 3 6 4 3 1 2 6 7 3 1 4 9 8 8 8 8 5 5 8 7 6 6 7 4 4 2
16 16 14 13 14 11 25 24 23 23 21 20 20 18 18 10 2 2 6 7 4 3 14 4 4 6 6 2 2 4 3 5 4 5 1 4 1 7 8 3 6 9 7 6 5 3 2
16 16 17 14 14 13 12 23 24 24 23 22 22 20 17 9 8 8 5 5 2 11 0 7 6 6 3 5 3 4 7 7 8 6 6 1 5 3 4 6 3 1 6 1 2 1 6
18 18 18 19 18 15 13 15 24 27 25 24 24 22 18 10 7 13 4 5 13 9 10 2 6 5 8 8 4 5 7 7 6 3 4 7 6 12 8 8 10 8 7 7 9 5 3
20 17 19 19 18 19 15 20 17 18 25 26 24 13 11 14 13 9 9 15 16 8 10 12 4 5 5 5 7 5 8 7 11 13 10 8 7 0 3 4 7 7 7 4 7 2 3
18 17 17 19 19 18 19 21 20 16 23 26 11 11 16 21 16 13 13 20 19 11 8 4 19 9 13 9 8 9 11 8 7 15 4 7 3 2 3 3 2 5 7 3 3 2 5
18 20 15 17 15 18 18 21 18 16 18 23 13 6 10 21 14 13 16 16 21 6 8 9 14 10 8 11 11 8 11 2 8 10 9 6 5 1 4 8 11 5 4 3 4 5 6
18 17 16 14 14 11 15 18 18 17 15 11 4 6 8 19 15 10 19 21 11 15 10 9 4 10 13 13 11 12 16 11 11 14 15 9 5 5 8 1 1 2 8 8 6 6 3
19 17 21 12 12 8 10 14 15 19 21 3 3 5 3 17 15 15 8 21 17 15 15 17 17 8 6 12 7 10 8 5 10 15 17 11 4 3 5 2 2 6 6 5 6 4 9
19 19 19 13 9 8 7 9 15 17 20 7 4 4 3 3 2 18 20 19 24 13 13 12 6 6 5 16 10 7 10 4 6 7 5 14 6 11 17 7 8 8 8 7 8 5 7
19 19 18 19 9 6 6 7 9 14 8 5 2 4 4 6 10 5 1 5 20 13 12 16 7 27 21 12 11 15 5 4 1 4 2 7 8 5 4 5 7 7 9 14 15 16 11
18 19 17 18 11 7 4 4 5 5 7 1 3 2 1 1 4 12 10 5 2 14 11 9 19 20 23 27 23 18 12 7 9 2 5 2 3 6 5 1 1 4 10 12 14 10 11
18 17 17 15 14 9 5 1 3 4 5 2 1 2 3 3 5 8 13 17 11 7 2 3 10 4 15 13 5 7 1 5 10 13 9 8 6 6 10 3 4 8 12 15 6 6 11
18 18 17 16 13 10 7 5 1 3 5 2 1 1 4 3 5 6 6 10 13 16 14 1 1 5 2 11 9 8 11 9 7 4 8 8 7 2 4 2 9 1 4 1 11 6 5
22 18 17 18 15 9 12 11 8 4 6 2 1 1 3 3 2 4 2 5 6 2 3 6 4 1 8 4 4 4 2 3 3 6 2 1 7 5 6 5 6 3 6 10 10 10 11
22 23 20 18 19 14 12 15 12 11 7 3 1 0 3 3 5 5 5 3 3 3 3 2 3 4 1 2 3 7 7 6 6 1 4 1 2 5 4 6 10 4 2 3 5 6 8
20 22 23 19 19 15 15 12 16 14 11 3 2 2 3 2 2 2 3 5 6 4 4 4 4 1 2 2 2 3 4 1 7 10 8 4 2 9 5 4 6 5 4 4 6 6 4
24 20 23 22 19 19 17 16 15 18 16 5 2 1 4 2 1 5 3 4 3 3 6 5 4 1 2 2 2 3 3 4 2 2 6 8 9 4 3 3 8 6 5 10 5 2 5
25 22 22 21 20 21 19 18 16 21 22 9 3 1 2 3 1 1 2 3 1 3 6 4 1 4 4 4 2 3 3 2 2 3 3 2 5 7 10 6 0 14 3 5 4 7 5
Wind_Direction
234 233 238 244 244 243 240 244 241 246 246 247 255 266 288 298 311 324 331 335 340 347 344 341 338 344 355 20 253 162 77 112 117 88 102 121 96 122 128 132 102 113 302 201 277 271 247
222 234 231 231 237 242 245 241 244 247 252 244 243 264 277 288 295 308 320 330 334 337 334 330 330 332 85 247 116 103 119 112 132 111 113 117 163 168 111 122 137 168 254 273 274 182 224
220 219 233 229 228 230 239 244 244 242 247 246 248 251 263 275 286 297 313 325 327 324 321 322 329 9 107 238 113 128 118 97 145 140 133 135 136 99 127 114 61 105 318 328 287 275 219
221 219 218 228 225 224 224 237 245 229 238 237 242 251 256 266 280 296 312 319 320 323 329 8 18 59 239 57 161 123 118 70 69 42 97 103 107 101 87 117 29 64 52 354 267 179 8
220 219 219 215 219 223 224 229 238 229 230 228 234 241 254 257 269 285 307 316 318 7 119 350 323 165 264 139 152 139 124 140 91 50 45 75 64 89 49 98 23 7 232 223 313 232 149
220 219 219 219 215 213 223 225 228 227 223 224 227 233 241 246 257 279 302 303 295 340 287 284 48 20 182 210 145 119 49 102 111 101 51 48 56 83 53 114 214 195 211 245 235 218 187
216 215 218 223 217 215 213 220 222 226 224 214 219 225 225 231 232 250 339 3 356 294 256 194 195 201 133 76 121 85 135 90 87 63 149 14 117 207 197 196 123 137 169 216 227 257 173
222 215 213 218 221 215 216 216 219 222 226 214 207 213 213 212 210 195 138 211 221 157 304 229 227 273 181 173 115 194 127 134 142 159 118 54 227 210 128 150 156 138 165 243 291 222 130
311 292 236 216 218 216 216 216 217 221 224 211 202 201 201 198 198 181 196 216 138 187 254 279 193 188 192 150 203 189 146 140 135 136 189 169 217 141 143 154 167 198 196 190 213 38 214
289 291 308 248 221 216 216 212 211 212 212 200 197 194 186 172 194 146 221 214 166 142 289 258 221 247 122 144 210 86 175 142 149 186 159 232 246 159 170 194 151 204 193 174 173 123 234
314 281 274 277 253 218 212 211 209 206 203 198 197 189 178 181 135 173 219 135 135 73 283 226 161 138 136 161 135 333 170 47 161 167 139 234 170 176 184 206 162 227 137 163 140 156 111
327 318 284 275 285 289 210 207 205 204 202 198 195 187 176 193 193 220 133 117 89 90 244 189 131 160 129 140 104 117 117 49 131 113 241 240 193 167 196 119 165 149 80 55 56 108 258
323 326 313 270 257 274 263 213 210 207 202 196 191 185 177 176 199 144 146 109 127 215 112 188 180 167 147 152 144 150 162 162 156 132 216 183 214 194 146 92 54 121 115 43 334 287 227
320 324 321 314 259 241 256 256 231 208 202 195 188 180 193 197 154 141 154 137 211 213 204 110 121 112 179 156 194 163 134 173 242 123 124 168 267 168 189 179 173 190 168 168 206 199 233
321 320 323 325 285 233 230 252 242 231 200 197 188 193 191 190 159 148 176 201 221 160 166 139 81 134 220 215 148 151 193 193 196 185 183 167 270 148 150 150 142 187 203 167 108 41 64
314 314 321 320 335 246 219 242 244 232 226 201 200 198 201 175 169 172 204 208 222 178 125 136 200 167 176 190 156 191 171 194 207 190 229 196 153 222 169 117 36 177 158 101 2 205 260
312 324 313 317 332 341 230 226 229 223 224 204 209 209 174 169 168 196 207 226 219 193 141 171 202 192 189 169 185 205 204 212 201 189 179 151 151 194 126 211 178 151 182 77 132 158 181
306 304 301 309 317 333 337 229 222 217 210 186 205 229 171 160 201 206 210 201 208 206 195 235 209 188 180 174 185 208 199 208 165 149 181 200 138 167 202 293 344 224 189 162 166 214 259
297 310 315 291 311 330 342 344 240 224 203 148 205 168 231 178 206 208 208 218 219 194 202 210 218 197 171 181 224 191 189 190 158 160 167 177 196 89 341 353 342 217 196 137 102 72 195
290 296 297 276 292 316 339 5 10 229 215 201 148 172 199 177 23 214 208 215 215 214 216 200 177 154 162 209 209 221 200 191 182 181 174 164 165 197 224 192 143 191 189 180 164 162 186
287 286 302 305 262 279 317 351 13 8 180 151 216 182 179 191 211 178 121 221 208 205 219 197 217 205 193 214 207 222 172 136 124 180 150 161 216 174 208 192 162 182 178 183 203 215 201
273 281 285 302 246 253 280 333 15 20 332 318 116 149 317 187 159 194 173 157 295 212 168 211 224 212 223 220 206 202 171 191 172 145 167 342 210 155 198 252 196 206 214 188 204 219 242
273 273 275 276 307 232 240 271 346 9 38 78 250 132 134 180 157 196 224 220 191 181 197 345 220 186 217 237 25 352 144 128 152 156 153 154 152 157 222 150 122 255 211 194 178 188 194
276 274 277 278 277 251 218 225 180 22 58 102 235 128 106 211 195 191 183 195 197 201 216 170 248 123 119 140 90 46 44 45 121 38 147 148 147 162 127 159 224 273 357 231 209 208 181
287 274 275 276 270 259 243 210 182 147 125 99 198 122 141 156 177 117 157 161 150 52 184 164 145 26 151 82 110 126 42 88 18 17 47 140 141 144 162 207 333 164 195 161 168 246 182
295 282 275 274 260 250 249 223 186 166 169 120 110 120 93 126 218 125 138 184 129 111 96 53 27 15 151 154 160 171 180 151 186 122 341 168 38 179 155 181 204 244 177 153 116 275 216
275 284 275 268 251 246 240 232 200 175 176 112 119 146 88 161 210 156 167 170 137 126 105 129 135 149 359 133 139 160 175 141 166 170 163 134 87 213 182 218 284 213 191 168 138 240 167
267 274 277 264 258 257 244 234 215 183 168 123 144 204 129 154 196 189 193 150 118 154 144 146 119 222 111 198 166 179 133 196 114 125 181 159 153 181 123 195 257 147 71 173 183 30 148
260 265 272 266 259 250 242 232 224 204 174 136 126 133 87 96 182 339 290 311 284 174 121 180 92 159 151 123 165 123 122 152 111 194 345 246 191 178 188 202 94 182 130 215 156 138 179